| time (UTC) | temp F | wind direction | speed MPH | gust MPH | rain 1hr in | rain 24hr in | rain mn in | humidity % | barometer mb |
| 20260905084022 | 59 | 250 | 0.0 | 0.0 | 0.00 | 0.00 | 0.00 | 93 | 1011.3 |
| 20260905083018 | 59 | 250 | 0.0 | 0.0 | 0.00 | 0.00 | 0.00 | 93 | 1011.4 |
| 20260905082022 | 59 | 250 | 0.0 | 0.0 | 0.00 | 0.00 | 0.00 | 93 | 1011.4 |
| 20260905075853 | 60 | 250 | 0.0 | 0.0 | 0.00 | 0.00 | 0.00 | 92 | 1011.5 |
| 20260905073803 | 60 | 250 | 0.0 | 0.0 | 0.00 | 0.00 | 0.00 | 91 | 1011.6 |
| 20260905072730 | 61 | 250 | 0.0 | 0.0 | 0.00 | 0.00 | 0.00 | 91 | 1011.5 |
| 20260905071707 | 61 | 250 | 0.0 | 0.0 | 0.00 | 0.00 | 0.00 | 91 | 1011.7 |
| 20260905065623 | 62 | 250 | 0.0 | 0.0 | 0.00 | 0.00 | 0.00 | 91 | 1011.8 |
| 20260905064629 | 62 | 250 | 0.0 | 0.0 | 0.00 | 0.00 | 0.00 | 91 | 1011.7 |
| 20260905063650 | 63 | 250 | 0.0 | 0.0 | 0.00 | 0.00 | 0.00 | 91 | 1011.8 |
| 20260905062633 | 63 | 250 | 0.0 | 0.0 | 0.00 | 0.00 | 0.00 | 90 | 1012.0 |
| 20260905061626 | 64 | 250 | 0.0 | 0.0 | 0.00 | 0.00 | 0.00 | 90 | 1012.0 |
| 20260905060622 | 64 | 250 | 0.0 | 0.0 | 0.00 | 0.00 | 0.00 | 90 | 1012.0 |
| 20260905055607 | 64 | 250 | 0.0 | 0.0 | 0.00 | 0.00 | 0.00 | 90 | 1012.0 |
| 20260905054544 | 64 | 250 | 0.0 | 0.0 | 0.00 | 0.00 | 0.00 | 90 | 1012.0 |
| 20260905053600 | 64 | 250 | 0.0 | 0.0 | 0.00 | 0.00 | 0.00 | 90 | 1012.0 |
| 20260905052540 | 64 | 152 | 0.0 | 0.0 | 0.00 | 0.00 | 0.00 | 89 | 1012.0 |
| 20260905051507 | 64 | 152 | 0.0 | 0.0 | 0.00 | 0.00 | 0.00 | 89 | 1012.0 |
| 20260905044313 | 64 | 152 | 0.0 | 0.0 | 0.00 | 0.00 | 0.00 | 87 | 1012.0 |
| 20260905043336 | 65 | 152 | 0.0 | 0.0 | 0.00 | 0.00 | 0.00 | 87 | 1012.0 |
| 20260905042315 | 65 | 152 | 0.0 | 0.0 | 0.00 | 0.00 | 0.00 | 87 | 1012.1 |
| 20260905041335 | 65 | 152 | 0.0 | 0.0 | 0.00 | 0.00 | 0.00 | 86 | 1012.1 |
| 20260905040309 | 65 | 152 | 0.0 | 0.0 | 0.00 | 0.00 | 0.00 | 85 | 1012.0 |
| 20260905035317 | 65 | 152 | 0.0 | 0.0 | 0.00 | 0.00 | 0.00 | 85 | 1011.9 |
| 20260905034330 | 65 | 152 | 0.0 | 0.0 | 0.00 | 0.00 | 0.00 | 85 | 1012.1 |
| 20260905033624 | 65 | 152 | 0.0 | 0.0 | 0.00 | 0.00 | 0.00 | 85 | 1012.2 |
| 20260905032619 | 66 | 152 | 0.0 | 0.0 | 0.00 | 0.00 | 0.00 | 83 | 1012.1 |
| 20260905031608 | 66 | 152 | 0.0 | 0.0 | 0.00 | 0.00 | 0.00 | 83 | 1012.0 |
| 20260905030545 | 66 | 152 | 0.0 | 0.0 | 0.00 | 0.00 | 0.00 | 82 | 1011.9 |
| 20260905025528 | 67 | 300 | 0.0 | 0.0 | 0.00 | 0.00 | 0.00 | 82 | 1011.9 |
| 20260905024504 | 67 | 300 | 0.0 | 0.0 | 0.00 | 0.00 | 0.00 | 81 | 1011.9 |
| 20260905023526 | 67 | 300 | 0.0 | 0.0 | 0.00 | 0.00 | 0.00 | 81 | 1012.0 |
| 20260905022514 | 67 | 300 | 0.0 | 0.0 | 0.00 | 0.00 | 0.00 | 80 | 1012.0 |
| 20260905021519 | 67 | 299 | 0.0 | 0.0 | 0.00 | 0.01 | 0.00 | 80 | 1012.0 |
| 20260905020502 | 67 | 299 | 0.0 | 0.0 | 0.00 | 0.01 | 0.00 | 79 | 1012.0 |
| 20260905015434 | 68 | 300 | 0.0 | 0.0 | 0.00 | 0.01 | 0.00 | 78 | 1012.0 |
| 20260905014406 | 68 | 299 | 0.0 | 0.0 | 0.00 | 0.10 | 0.00 | 77 | 1012.0 |
| 20260905013348 | 68 | 300 | 0.0 | 0.0 | 0.00 | 0.38 | 0.00 | 77 | 1012.0 |
| 20260905012407 | 68 | 299 | 0.0 | 0.0 | 0.00 | 0.59 | 0.00 | 78 | 1012.0 |
| 20260905011358 | 68 | 299 | 0.0 | 0.0 | 0.00 | 0.62 | 0.00 | 79 | 1012.1 |
| 20260905010409 | 69 | 299 | 0.0 | 0.0 | 0.00 | 0.63 | 0.00 | 79 | 1012.2 |
| 20260905005336 | 69 | 299 | 0.0 | 0.0 | 0.00 | 0.63 | 0.00 | 78 | 1012.1 |
| 20260905003213 | 70 | 299 | 0.0 | 0.0 | 0.00 | 0.63 | 0.00 | 77 | 1012.1 |
| 20260905002155 | 70 | 299 | 0.0 | 0.0 | 0.00 | 0.63 | 0.00 | 76 | 1012.0 |
| 20260905001121 | 70 | 299 | 0.0 | 0.0 | 0.00 | 0.63 | 0.00 | 74 | 1011.9 |
| 20260905000147 | 71 | 299 | 0.0 | 0.0 | 0.00 | 0.63 | 0.00 | 72 | 1011.8 |
| 20260904235151 | 71 | 299 | 0.0 | 0.0 | 0.00 | 0.63 | 0.00 | 70 | 1011.6 |
| 20260904234214 | 71 | 299 | 0.0 | 0.0 | 0.00 | 0.63 | 0.00 | 71 | 1011.5 |
| 20260904233150 | 72 | 299 | 0.0 | 0.0 | 0.00 | 0.63 | 0.00 | 70 | 1011.5 |
| 20260904231007 | 72 | 299 | 0.0 | 0.0 | 0.00 | 0.63 | 0.00 | 69 | 1011.5 |
| 20260904225951 | 73 | 299 | 0.0 | 0.0 | 0.00 | 0.63 | 0.00 | 69 | 1011.3 |
| 20260904224944 | 73 | 299 | 0.0 | 0.0 | 0.00 | 0.63 | 0.00 | 68 | 1011.2 |
| 20260904223957 | 73 | 299 | 0.0 | 0.0 | 0.00 | 0.63 | 0.00 | 69 | 1011.2 |
| 20260904222937 | 74 | 298 | 0.0 | 0.0 | 0.00 | 0.63 | 0.00 | 68 | 1011.1 |
| 20260904220858 | 75 | 257 | 0.0 | 1.0 | 0.00 | 0.63 | 0.00 | 67 | 1010.9 |
| 20260904214751 | 75 | 328 | 0.0 | 0.0 | 0.00 | 0.63 | 0.00 | 68 | 1010.9 |
| 20260904213807 | 75 | 158 | 0.0 | 0.0 | 0.00 | 0.63 | 0.00 | 69 | 1010.9 |
| 20260904212820 | 76 | 353 | 0.0 | 0.0 | 0.00 | 0.63 | 0.00 | 69 | 1011.1 |
| 20260904210741 | 77 | 352 | 0.0 | 0.0 | 0.00 | 0.63 | 0.00 | 67 | 1011.2 |
| 20260904205734 | 77 | 155 | 0.0 | 0.0 | 0.00 | 0.63 | 0.00 | 65 | 1011.2 |
| 20260904204659 | 77 | 333 | 0.0 | 0.0 | 0.00 | 0.63 | 0.00 | 65 | 1011.3 |
| 20260904202551 | 79 | 203 | 0.0 | 0.0 | 0.00 | 0.63 | 0.00 | 63 | 1011.3 |
| 20260904201547 | 80 | 176 | 0.0 | 1.0 | 0.00 | 0.63 | 0.00 | 62 | 1011.4 |
| 20260904200513 | 79 | 330 | 0.0 | 4.0 | 0.00 | 0.63 | 0.00 | 61 | 1011.5 |
| 20260904194404 | 80 | 35 | 0.0 | 5.0 | 0.00 | 0.63 | 0.00 | 63 | 1011.8 |
| 20260904192243 | 80 | 144 | 0.0 | 2.0 | 0.00 | 0.63 | 0.00 | 65 | 1012.0 |
| 20260904191219 | 79 | 15 | 0.0 | 3.0 | 0.00 | 0.63 | 0.00 | 65 | 1012.1 |
| 20260904190242 | 80 | 189 | 0.0 | 4.0 | 0.00 | 0.63 | 0.00 | 60 | 1012.1 |
| 20260904185222 | 79 | 37 | 0.0 | 4.0 | 0.00 | 0.63 | 0.00 | 62 | 1012.2 |
| 20260904184209 | 78 | 67 | 0.0 | 0.0 | 0.00 | 0.63 | 0.00 | 65 | 1012.2 |
| 20260904183230 | 78 | 68 | 0.0 | 2.0 | 0.00 | 0.63 | 0.00 | 67 | 1012.3 |
| 20260904181022 | 80 | 208 | 0.0 | 3.0 | 0.00 | 0.63 | 0.00 | 63 | 1012.4 |
| 20260904180027 | 79 | 359 | 0.0 | 1.0 | 0.00 | 0.63 | 0.00 | 66 | 1012.5 |
| 20260904175026 | 78 | 192 | 0.0 | 0.0 | 0.00 | 0.63 | 0.00 | 70 | 1012.5 |
| 20260904174006 | 76 | 95 | 0.0 | 2.0 | 0.00 | 0.63 | 0.00 | 70 | 1012.7 |
| 20260904172953 | 76 | 344 | 0.0 | 0.0 | 0.00 | 0.63 | 0.00 | 69 | 1012.8 |
| 20260904171923 | 76 | 340 | 0.0 | 2.0 | 0.00 | 0.63 | 0.00 | 69 | 1013.0 |
| 20260904165811 | 77 | 22 | 0.0 | 3.0 | 0.00 | 0.63 | 0.00 | 71 | 1013.0 |
| 20260904164813 | 77 | 11 | 0.0 | 2.0 | 0.00 | 0.63 | 0.00 | 66 | 1013.2 |
| 20260904163750 | 77 | 193 | 0.0 | 3.0 | 0.00 | 0.63 | 0.00 | 70 | 1013.0 |
| 20260904162745 | 76 | 15 | 0.0 | 2.0 | 0.00 | 0.63 | 0.00 | 71 | 1013.1 |
| 20260904161741 | 75 | 197 | 0.0 | 1.0 | 0.00 | 0.63 | 0.00 | 74 | 1013.1 |
| 20260904160759 | 75 | 147 | 0.0 | 0.0 | 0.00 | 0.63 | 0.00 | 73 | 1013.1 |
| 20260904154719 | 76 | 172 | 0.0 | 2.0 | 0.00 | 0.63 | 0.00 | 73 | 1013.1 |
| 20260904153734 | 76 | 245 | 0.0 | 0.0 | 0.00 | 0.63 | 0.00 | 75 | 1013.3 |
| 20260904152753 | 75 | 359 | 0.0 | 2.0 | 0.00 | 0.63 | 0.00 | 76 | 1013.2 |
| 20260904151747 | 74 | 160 | 0.0 | 0.0 | 0.00 | 0.63 | 0.00 | 75 | 1013.1 |
| 20260904150720 | 74 | 14 | 0.0 | 1.0 | 0.00 | 0.63 | 0.00 | 79 | 1013.0 |
| 20260904145730 | 73 | 354 | 0.0 | 3.0 | 0.00 | 0.63 | 0.00 | 78 | 1013.0 |
| 20260904144717 | 74 | 8 | 0.0 | 1.0 | 0.00 | 0.63 | 0.00 | 81 | 1012.9 |
| 20260904143709 | 72 | 6 | 0.0 | 0.0 | 0.00 | 0.63 | 0.00 | 80 | 1012.9 |
| 20260904142733 | 72 | 84 | 0.0 | 0.0 | 0.00 | 0.63 | 0.00 | 83 | 1013.3 |
| 20260904141659 | 71 | 234 | 0.0 | 3.0 | 0.00 | 0.63 | 0.00 | 85 | 1013.2 |
| 20260904140722 | 71 | 165 | 0.0 | 3.0 | 0.00 | 0.63 | 0.00 | 87 | 1013.2 |
| 20260904133401 | 68 | 193 | 0.0 | 0.0 | 0.00 | 0.63 | 0.00 | 92 | 1013.4 |
| 20260904132416 | 68 | 191 | 0.0 | 1.0 | 0.00 | 0.63 | 0.00 | 92 | 1013.4 |
| 20260904131347 | 67 | 162 | 0.0 | 0.0 | 0.00 | 0.63 | 0.00 | 94 | 1013.4 |
| 20260904130317 | 66 | 32 | 0.0 | 1.0 | 0.00 | 0.63 | 0.00 | 95 | 1013.4 |
| 20260904125242 | 66 | 169 | 0.0 | 0.0 | 0.00 | 0.63 | 0.00 | 96 | 1013.5 |
| 20260904123111 | 65 | 176 | 0.0 | 0.0 | 0.00 | 0.63 | 0.00 | 96 | 1013.2 |
| 20260904122104 | 64 | 167 | 0.0 | 0.0 | 0.00 | 0.63 | 0.00 | 97 | 1013.1 |
| 20260904121056 | 64 | 11 | 0.0 | 0.0 | 0.00 | 0.63 | 0.00 | 97 | 1013.1 |
| 20260904120023 | 63 | 13 | 0.0 | 0.0 | 0.00 | 0.63 | 0.00 | 97 | 1013.1 |
| 20260904115015 | 63 | 346 | 0.0 | 0.0 | 0.00 | 0.63 | 0.00 | 96 | 1013.1 |
| 20260904114038 | 63 | 353 | 0.0 | 0.0 | 0.00 | 0.63 | 0.00 | 96 | 1013.2 |
| 20260904113018 | 63 | 347 | 0.0 | 0.0 | 0.00 | 0.63 | 0.00 | 96 | 1013.2 |
| 20260904111954 | 63 | 355 | 0.0 | 0.0 | 0.00 | 0.63 | 0.00 | 96 | 1013.0 |
| 20260904110939 | 63 | 353 | 0.0 | 0.0 | 0.00 | 0.63 | 0.00 | 96 | 1012.9 |
| 20260904110005 | 62 | 7 | 0.0 | 0.0 | 0.00 | 0.63 | 0.00 | 96 | 1012.9 |
| 20260904104941 | 62 | 7 | 0.0 | 0.0 | 0.00 | 0.63 | 0.00 | 96 | 1012.8 |
| 20260904104006 | 63 | 347 | 0.0 | 0.0 | 0.00 | 0.63 | 0.00 | 96 | 1012.7 |
| 20260904101909 | 63 | 347 | 0.0 | 0.0 | 0.00 | 0.63 | 0.00 | 96 | 1012.5 |
| 20260904100933 | 63 | 347 | 0.0 | 0.0 | 0.00 | 0.63 | 0.00 | 96 | 1012.4 |
| 20260904094754 | 63 | 338 | 0.0 | 0.0 | 0.00 | 0.63 | 0.00 | 95 | 1012.4 |
| 20260904093817 | 64 | 338 | 0.0 | 0.0 | 0.00 | 0.63 | 0.00 | 96 | 1012.3 |
| 20260904092804 | 64 | 338 | 0.0 | 0.0 | 0.00 | 0.63 | 0.00 | 96 | 1012.3 |
| 20260904091729 | 64 | 0 | 0.0 | 0.0 | 0.00 | 0.63 | 0.00 | 96 | 1012.2 |
| 20260904090731 | 64 | 0 | 0.0 | 0.0 | 0.00 | 0.63 | 0.00 | 96 | 1012.2 |
| 20260904085705 | 64 | 0 | 0.0 | 0.0 | 0.00 | 0.63 | 0.00 | 96 | 1012.0 |